sat.trackr.live / text

‹ back to catalog

TRANSPORTER-16 OBJECT Y

NORAD 68438 · 2026-067Y

PAYLOAD ACTIVE UNKNOWN

§ Identity

Operator
Country
TBD
Launch date
2026-03-30
Launch site
AFWTR
Launch vehicle
Mass (kg)
RCS (m²)

External: N2YO · Heavens-Above · Gunter

§ Orbital elements

Epoch: 2026-05-24T20:38:25.426464Z

Period
94.80 min
Inclination
97.4509°
Eccentricity
0.0005455
Mean motion
15.19031909 rev/d
Perigee alt
505.0 km
Apogee alt
512.5 km
Semi-major
6,886.9 km
B*
4.8403e-4
RAAN
103.6850°
Arg perigee
109.3427°
Mean anomaly
250.8398°
Rev number
840

§ Raw data

TRANSPORTER-16 OBJECT Y1 68438U 26067Y   26144.86001651  .00010079  00000+0  48403-3 0  99922 68438  97.4509 103.6850 0005455 109.3427 250.8398 15.19031909  8408

JSON: /api/v1/satellites/68438 · /tle

For live sub-satellite position, see the globe view (requires WebGL).

§ Visibility from observer

Set your observer location to see the next 7 days of passes ≥ 10°. The values pass through the URL so the page stays shareable.

No JS? Fill the form by hand. The geolocation button needs JavaScript.